MOLNIYA 1-91

Last updated on Aug. 7, 2020, 5:36 a.m. UTC

1 25485U 98054A   20219.37780502  .00000043  00000-0  19971-3 0  9993
2 25485  62.8529 263.0896 7077714 289.6109  42.4462  2.36442578162305
UTC
Height (km)
Latitude
Longitude
Inclination
Orbital Period
UTC large
Height (km)
Speed (km/s)
/
Latitude / Longitude
Inclination (degrees)
Orbital Period (minutes)
Azimuth
Elevation
Range (km)
Doppler Factor
iOS Compass Heading
iOS Angle

Next 30 passes for location: Hong Kong

Rise time Rise Azimuth (degrees) Set time Set Azimuth (degrees) Duration Max altitude (degrees)

No matching passes for this satellites